This demonstration page uses our WeatherBlox Daily Observations layout. Learn more.

36.17497, -115.13722

Hourly Observations for July 6, 2015

Temp ( °F °C ) Dew Point ( °F °C ) Humidity (%) Winds ( mph kmh ) Pressure ( in mb ) Visibility ( mi km ) Precip ( " mm )
12:53 am 00:53 Clear 88 31 50 10 27 27 WNW 13 20 29.8 1009 10 16.09344 0 0
1:53 am 01:53 Clear 84 29 54 12 35 35 SW 8 13 29.8 1009 10 16.09344 0 0
2:53 am 02:53 Clear 84 29 54 12 35 35 NE 5 7 29.8 1009 10 16.09344 0 0
3:53 am 03:53 Clear 84 29 55 13 37 37 S 7 11 29.8 1009 10 16.09344 0 0
4:53 am 04:53 Cloudy with Light Rain 84 29 55 13 37 37 ENE 5 7 29.83 1010 10 16.09344 0.001 0.001
5:53 am 05:53 Mostly Sunny 84 29 55 13 37 37 NE 7 11 29.83 1010 10 16.09344 0.001 0.001
6:53 am 06:53 Sunny 82 28 59 15 45 45 ESE 9 15 29.88 1012 10 16.09344 0 0
7:53 am 07:53 Sunny 82 28 59 15 45 45 ESE 6 9 29.88 1012 10 16.09344 0 0
8:53 am 08:53 Sunny 84 29 59 15 43 43 ESE 7 11 29.88 1012 10 16.09344 0 0
9:53 am 09:53 Sunny 84 29 57 14 40 40 E 3 6 29.88 1012 10 16.09344 0 0
10:53 am 10:53 Sunny 88 31 57 14 35 35 ESE 6 9 29.88 1012 10 16.09344 0 0
11:53 am 11:53 Sunny 91 33 55 13 30 30 Calm 29.83 1010 10 16.09344 0 0
12:53 pm 12:53 Sunny 91 33 55 13 30 30 Calm 29.8 1009 10 16.09344 0 0
1:53 pm 13:53 Sunny 97 36 55 13 25 25 Calm 29.77 1008 10 16.09344 0 0
2:53 pm 14:53 Sunny 99 37 52 11 21 21 undefined N/A 29.74 1007 10 16.09344 0 0
3:53 pm 15:53 Sunny 99 37 50 10 19 19 SE 8 13 29.71 1006 10 16.09344 0 0
4:53 pm 16:53 Sunny 99 37 50 10 19 19 ESE 12 19 29.71 1006 10 16.09344 0 0
5:53 pm 17:53 Mostly Sunny 97 36 52 11 22 22 SE 6 9 29.68 1005 10 16.09344 0 0
6:41 pm 18:41 Cloudy with Light Rain 86 30 57 14 38 38 WNW 26 43 29.77 1008 10 16.09344 0.001 0.001
6:53 pm 18:53 Cloudy with Light Rain 79 26 64 18 61 61 SW 13 20 29.83 1010 8 12.874752 0.001 0.001
6:55 pm 18:55 Mostly Cloudy with Rain 79 26 64 18 61 61 SW 20 31 29.83 1010 1.75 2.816352 0.001 0.001
7:10 pm 19:10 Partly Cloudy with Light Rain 75 24 64 18 69 69 SW 12 19 29.85 1011 10 16.09344 0 0
7:53 pm 19:53 Mostly Sunny 77 25 64 18 65 65 SW 15 24 29.83 1010 10 16.09344 0.001 0.001
8:53 pm 20:53 Mostly Cloudy with Light Rain 81 27 63 17 54 54 NW 5 7 29.83 1010 10 16.09344 0.001 0.001
9:53 pm 21:53 Partly Cloudy 81 27 63 17 54 54 NNW 7 11 29.83 1010 10 16.09344 0.001 0.001
10:53 pm 22:53 Mostly Clear 81 27 63 17 54 54 Calm 29.85 1011 10 16.09344 0 0
11:53 pm 23:53 Clear 81 27 64 18 58 58 Calm 29.85 1011 10 16.09344 0 0

Powered by AerisWeather